SCP
-0 -0 -0 -0 -0 -0 -0 -0 0 0 0 0 0 0 0 0 0 0 0 0 0 -0 0 0 0 0 0 0 0 0 0 0 0 0 0 0 0 0 0 0 0 -0 -0 0 0
-0 -0 -0 -0 -0 -0 -0 -0 0 0 0 0 0 0 0 0 0 0 0 0 0 0 0 0 0 0 0 0 0 0 0 0 0 0 0 0 0 0 0 0 -0 -0 -0 0 0
0 0 0 0 0 -0 -0 -0 -0 0 0 0 0 0 0 0 0 0 0 0 0 0 0 0 0 0 0 0 0 0 0 0 0 0 0 0 0 0 0 -0 0 -0 -0 0 0
0 0 0 0 0 0 0 0 0 0 0 0 -0 -0 0 0 0 0 0 0 0 0 0 0 0 0 0 0 0 0 0 0 0 0 0 0 0 0 0 -0 -0 -0 0 0 0
-0 0 0 0 0 0 0 0 0 0 0 0 0 0 0 0 0 0 0 0 0 0 0 0 0 0 0 0 0 0 0 0 0 0 0 0 0 -0 0 0 -0 0 0 0 0
-0 -0 0 0 0 0 0 0 0 0 0 0 0 0 0 0 0 0 0 0 0 0 0 0 0 0 0 0 0 0 0 0 0 0 0 0 0 0 -0 0 0 0 0 0 0
-0 -0 -0 -0 0 0 0 0 0 0 0 0 0 0 0 0 0 0 0 0 0 0 0 0 0 0 0 0 0 0 0 0 0 0 0 0 0 -0 0 0 0 0 0 0 0
-0 -0 -0 -0 -0 -0 0 0 0 0 0 -0 0 0 0 0 0 0 0 0 0 0 0 0 0 0 0 0 0 0 0 0 0 0 0 0 0 0 0 0 0 0 0 0 0
-0 -0 -0 -0 -0 -0 0 0 0 0 0 0 0 0 0 0 0 0 0 0 0 0 0 0 0 0 0 0 0 0 0 0 0 0 0 0 0 0 0 0 0 0 0 0 0
0 0 -0 -0 -0 -0 -0 0 0 0 0 0 0 0 0 0 0 0 0 0 0 0 0 0 0 0 0 0 0 0 0 0 0 0 0 0 0 -0 0 0 0 0 0 0 0
0 0 0 -0 -0 -0 0 0 0 0 0 0 0 0 0 0 0 0 0 0 0 0 0 0 0 0 0 0 0 0 0 0 0 0 0 0 0 0 0 0 0 0 0 0 0
0 0 0 0 0 0 0 0 0 0 0 0 0 0 0 0 0 0 0 0 0 0 0 0 0 0 0 0 0 0 0 0 0 0 0 0 0 0 0 0 0 0 0 0 0
0 0 -0 -0 0 0 -0 -0 0 0 0 0 0 0 0 0 0 0 0 0 0 0 0 0 0 0 0 0 0 0 0 0 0 0 0 0 0 0 0 0 0 0 0 0 0
0 0 -0 -0 0 0 0 -0 -0 -0 0 0 0 0 0 0 0 0 0 0 0 0 0 0 0 0 0 0 0 0 0 0 0 0 0 0 0 0 0 0 0 0 0 0 0
0 0 0 0 0 0 0 0 0 0 0 0 0 0 0 0 0 0 0 0 0 0 0 0 0 0 0 0 0 0 0 0 0 0 0 0 0 0 0 0 0 0 0 0 0
0 0 0 0 0 0 0 0 0 0 0 0 0 0 0 0 0 0 0 0 0 0 0 0 0 0 0 0 0 0 0 0 0 0 0 0 0 0 0 0 0 0 0 0 0
0 0 0 0 0 0 0 0 0 0 0 0 0 0 0 0 0 0 0 0 0 0 0 0 0 0 0 0 0 0 0 0 0 0 0 0 0 0 0 0 0 0 0 0 0
0 0 0 0 0 0 0 0 0 0 0 0 0 0 0 0 0 0 0 0 0 0 0 0 0 0 0 0 0 0 0 0 0 0 0 0 0 0 0 0 0 0 0 0 0
0 0 0 0 0 0 0 0 0 0 0 0 0 0 0 0 0 0 0 0 0 0 0 0 0 0 0 0 0 0 0 0 0 0 0 0 0 0 0 0 0 -0 0 0 0
0 0 0 0 0 0 0 0 0 0 0 0 0 0 0 0 0 0 0 0 0 0 0 0 0 0 0 0 0 0 0 0 0 0 0 0 0 0 0 0 0 0 -0 -0 0
0 0 0 0 0 0 0 0 0 0 0 0 0 0 0 0 0 0 0 0 0 0 0 0 0 0 0 0 0 0 0 0 0 0 0 0 0 0 0 0 0 0 0 0 0
0 0 0 0 0 0 0 0 0 0 0 0 0 0 0 0 0 0 0 0 0 0 0 0 0 0 0 0 0 0 0 0 0 0 0 0 0 0 0 0 0 0 0 0 0
0 0 0 0 0 0 0 0 0 0 0 0 0 0 0 0 0 0 0 0 0 0 0 0 0 0 0 0 0 0 0 0 0 0 0 0 0 0 0 0 0 0 0 0 0
0 0 0 0 0 0 0 0 0 0 0 0 0 0 0 0 0 0 0 0 0 0 0 0 0 0 0 0 0 0 0 0 0 0 0 0 0 0 0 0 0 0 0 0 0
0 0 0 0 0 0 0 0 0 0 0 0 0 0 0 0 0 0 0 0 0 0 0 0 0 0 0 0 0 0 0 0 0 0 0 0 0 0 0 0 0 0 0 0 0
0 0 0 0 0 0 0 0 0 0 0 0 0 0 0 0 0 0 0 0 0 0 0 0 0 0 0 0 0 0 0 0 0 0 0 0 0 0 0 0 0 0 0 0 0
0 0 0 0 0 0 0 0 0 0 0 0 0 0 0 0 0 0 0 0 0 0 0 0 0 0 0 0 0 0 0 0 0 0 0 0 0 0 0 0 0 0 0 0 0
Wind_Speed_500mb
17 17 18 21 21 19 17 20 22 20 22 16 26 17 16 15 22 18 10 16 12 15 18 5 20 32 25 14 14 12 7 6 14 13 7 10 8 8 6 6 9 11 13 13 16
16 15 17 18 20 22 20 21 21 22 21 21 21 20 11 14 12 23 24 15 12 16 10 17 28 29 12 9 6 7 7 14 5 7 8 11 8 13 8 8 11 16 20 19 19
13 15 17 19 19 20 22 21 20 19 19 21 19 19 18 5 4 20 23 9 6 10 10 17 17 11 9 8 7 5 6 10 7 7 9 9 5 7 10 10 24 33 30 27 25
14 15 16 20 22 22 23 22 20 19 18 17 19 12 14 7 3 20 20 5 1 4 7 9 4 5 8 8 7 9 8 5 7 5 5 4 3 7 24 9 12 21 25 28 27
16 18 19 18 20 22 22 23 22 20 16 15 17 13 5 8 11 17 19 4 6 4 7 6 4 7 9 7 7 8 5 9 8 5 1 6 8 13 32 35 19 27 31 32 28
20 19 22 21 21 21 21 23 21 18 16 14 12 14 8 7 9 13 15 9 3 6 6 10 10 15 18 9 8 7 12 11 5 6 1 2 5 4 11 36 44 36 35 34 32
24 24 23 23 23 22 22 22 21 17 18 13 11 9 6 8 8 8 12 12 14 9 13 17 20 8 14 10 14 13 6 2 6 8 3 8 12 21 35 10 47 46 40 38 34
26 27 28 27 27 25 23 22 20 15 12 9 8 5 6 4 5 5 7 15 17 18 20 20 21 21 9 24 10 8 8 2 0 11 0 2 17 4 12 29 45 51 47 43 39
28 29 30 30 29 27 25 22 17 10 8 6 4 3 4 3 1 4 4 7 11 14 16 12 5 13 12 9 8 11 4 7 4 6 7 5 15 7 8 26 40 54 57 53 46
27 29 30 31 31 27 26 23 14 10 9 8 6 3 4 3 1 3 4 7 4 7 5 4 9 7 8 7 8 9 6 6 8 4 3 7 32 28 45 34 55 57 61 64 60
26 28 31 32 31 27 24 16 8 6 4 4 3 4 2 1 4 4 7 8 9 5 6 10 9 3 3 0 3 8 6 5 5 4 6 11 19 41 32 44 55 68 71 72 72
30 29 29 30 29 24 23 10 11 2 10 6 4 3 3 1 5 7 5 7 6 6 4 8 3 5 4 3 5 4 3 6 6 3 2 7 32 43 20 24 52 63 65 71 79
30 32 32 30 20 24 19 17 14 14 5 5 3 2 2 2 4 3 5 9 10 7 5 9 8 6 5 3 4 2 3 1 4 11 0 14 16 14 3 9 21 34 35 38 47
30 31 32 33 12 25 17 23 16 12 10 6 1 1 3 3 3 6 5 5 8 10 8 10 6 7 4 3 2 3 4 4 5 10 7 9 11 16 7 17 12 25 27 29 32
27 28 32 28 22 20 19 18 17 8 8 3 3 3 3 2 5 3 6 5 12 10 8 6 10 7 5 4 2 5 4 5 3 5 6 4 2 17 9 12 9 11 20 15 14
31 28 26 25 23 23 21 17 5 12 12 8 5 6 4 7 3 1 1 8 13 8 10 7 3 3 5 4 5 12 7 5 5 4 3 2 5 12 8 6 10 8 7 5 13
36 34 30 27 22 23 21 11 10 9 4 10 4 6 3 2 2 5 1 4 8 10 1 3 3 2 3 8 3 2 6 6 9 6 9 1 2 21 10 10 5 6 5 7 15
47 43 39 31 27 20 15 10 7 6 13 3 4 4 2 7 1 5 3 4 5 8 7 11 9 7 2 2 7 6 3 9 11 5 6 5 12 13 12 4 11 27 15 8 17
56 57 55 40 28 16 4 5 16 16 9 13 2 8 9 4 3 2 9 10 13 17 17 10 4 1 3 3 3 8 4 7 12 4 6 7 15 23 8 12 28 38 23 37 29
53 60 60 51 38 21 5 14 11 11 15 6 14 8 10 6 5 7 5 8 9 5 4 8 5 3 1 2 9 2 8 6 5 1 7 9 11 14 7 4 4 6 35 36 32
56 23 26 37 38 20 11 15 14 22 18 15 17 11 12 12 11 8 9 9 9 8 11 7 7 3 5 12 17 6 3 8 6 8 9 3 12 14 13 7 9 14 13 18 19
50 7 23 42 15 9 11 17 18 14 24 9 3 13 18 16 15 7 16 13 22 24 17 14 10 8 14 6 7 7 9 12 9 12 5 4 15 7 14 17 19 34 28 22 20
19 21 32 54 13 8 6 9 18 13 12 16 19 15 8 17 2 15 10 2 30 17 15 15 4 4 12 7 8 7 9 5 9 5 13 11 11 7 11 15 24 31 28 36 47
15 5 15 37 23 11 15 13 17 29 15 16 9 11 9 9 8 9 11 6 24 13 2 15 5 14 17 12 11 9 11 11 11 7 8 19 16 21 37 36 27 49 56 53 49
22 14 15 10 19 21 14 15 37 28 17 29 8 15 17 15 12 13 7 1 4 13 9 10 12 7 5 4 5 9 10 23 26 30 20 17 31 32 41 37 28 37 40 65 63
18 14 12 12 13 32 37 38 42 33 24 13 18 24 23 40 35 21 21 14 15 7 14 4 7 7 7 2 6 8 17 21 33 21 35 37 53 38 65 65 67 64 47 51 61
48 54 40 16 11 18 24 33 33 27 32 60 44 31 29 55 42 41 24 11 14 26 24 16 12 7 12 3 8 16 34 31 19 16 27 32 56 37 38 30 40 41 40 59 75
Wind_Direction_500mb
46 36 27 20 18 19 7 1 6 2 360 349 342 272 253 350 16 24 16 24 17 9 358 28 154 152 150 141 141 142 81 169 188 161 174 164 154 182 188 191 194 202 188 180 182
40 31 16 16 16 9 9 2 359 359 0 356 360 22 283 281 331 14 21 20 24 15 36 104 126 135 124 120 99 95 123 198 153 149 157 167 184 174 182 198 220 215 208 196 183
27 16 8 6 10 5 2 3 1 357 356 0 348 350 16 216 279 3 3 9 34 33 76 113 121 122 87 103 45 60 153 154 172 153 143 156 209 206 178 230 212 206 197 192 191
11 3 359 357 357 358 357 355 354 353 348 0 357 357 32 54 227 357 358 349 153 69 112 122 111 86 79 80 45 82 62 69 129 155 147 178 220 249 216 246 229 204 197 196 197
351 347 348 349 347 348 349 348 346 348 351 355 8 6 33 65 31 9 2 38 187 182 164 154 104 96 93 92 90 82 130 92 107 125 169 263 261 265 256 229 215 202 203 206 207
339 344 339 341 340 338 339 341 338 342 347 353 331 348 29 88 8 23 25 54 153 170 158 160 164 120 109 73 65 97 116 122 91 41 234 285 247 313 262 220 215 213 213 213 213
340 339 338 336 334 333 334 333 329 323 339 339 338 347 49 99 46 51 49 78 83 101 138 128 135 129 115 99 110 116 78 66 22 351 327 340 277 234 233 243 210 216 218 220 221
344 340 338 337 332 329 329 327 325 318 322 319 336 332 93 80 48 37 96 87 87 95 110 111 113 111 80 118 62 73 63 99 105 359 249 351 270 264 234 220 216 220 224 226 223
342 341 340 337 335 330 328 324 320 313 310 312 312 213 157 158 14 40 126 126 108 103 102 105 120 88 105 87 41 15 200 219 299 50 307 187 274 268 221 210 225 226 228 230 228
345 342 340 339 337 336 329 323 307 297 294 258 247 170 189 219 337 57 111 155 143 123 88 78 60 66 40 87 210 190 205 242 248 331 331 236 265 266 254 244 249 241 236 234 233
352 348 343 341 341 342 340 329 309 285 277 198 179 175 190 264 163 21 163 144 146 103 54 23 70 181 144 175 112 123 145 219 219 162 306 232 271 275 254 239 247 248 243 240 237
1 358 350 346 343 349 353 4 19 330 307 294 269 246 232 187 173 20 139 176 128 111 340 36 135 171 126 115 97 64 145 254 270 102 3 342 284 270 256 232 236 250 250 249 242
4 3 360 354 351 357 15 27 3 348 281 280 264 224 231 242 120 2 142 136 95 88 22 153 155 164 169 118 154 67 181 93 267 319 123 317 281 299 305 255 251 251 259 258 247
356 0 4 0 13 1 11 1 356 348 61 274 253 326 275 146 42 57 103 148 59 146 119 96 171 167 139 146 185 207 98 77 9 18 276 2 285 307 331 294 253 256 250 257 247
343 349 354 7 358 1 348 348 346 2 360 338 318 304 5 143 130 45 60 111 130 139 141 171 150 167 161 98 342 133 84 84 78 88 345 16 82 271 337 316 313 272 244 251 221
322 330 336 345 349 350 347 338 359 44 258 328 302 347 12 20 17 354 119 86 110 104 46 104 120 47 109 94 71 145 106 77 70 96 6 261 153 280 243 237 323 350 283 249 186
300 307 314 322 327 335 339 336 33 136 340 286 264 357 152 19 355 18 68 136 159 82 309 43 92 100 121 106 58 146 76 327 343 11 225 349 357 250 300 271 232 330 1 216 203
289 288 290 297 305 317 329 49 123 239 229 168 157 127 203 0 137 2 60 292 244 95 98 152 303 169 330 118 160 155 157 159 223 234 282 21 234 250 218 289 273 238 244 245 226
281 280 277 276 279 276 299 69 206 201 169 155 88 79 307 6 142 38 215 217 209 180 168 131 260 84 36 146 148 167 158 172 108 77 43 261 285 289 249 259 252 253 241 245 239
271 271 266 266 260 238 150 223 232 199 142 147 181 163 211 240 169 174 177 208 199 177 78 217 68 342 89 127 22 146 150 91 6 206 286 284 279 246 327 264 342 262 240 254 245
266 257 246 237 219 187 208 220 221 225 182 170 194 167 201 193 188 218 230 292 190 137 89 128 99 299 31 212 179 148 180 51 115 150 190 241 255 216 228 248 280 277 291 278 250
240 217 223 203 195 204 186 180 204 182 203 244 228 196 186 166 185 232 220 223 171 160 170 198 141 172 217 319 348 317 202 164 138 225 221 158 263 223 236 254 262 273 275 275 279
237 245 196 196 224 228 264 225 204 153 196 177 210 201 192 174 201 196 207 208 178 173 166 192 248 50 340 347 355 215 206 169 83 70 199 157 252 211 245 250 256 261 268 283 292
260 243 182 206 233 248 191 222 221 211 190 177 190 128 136 181 233 221 224 184 190 200 201 147 147 175 195 200 130 189 196 174 140 138 192 228 268 288 280 276 264 266 279 287 291
226 235 219 201 231 228 211 196 224 220 211 193 219 208 167 198 186 207 230 97 182 208 167 140 210 167 278 127 125 195 166 185 199 213 200 244 228 239 253 265 283 289 290 294 294
266 219 225 250 193 202 214 231 235 222 160 220 224 187 203 224 204 190 174 187 195 144 161 170 223 121 298 185 206 274 231 195 215 235 255 264 272 256 269 282 277 280 281 281 287
249 263 261 239 187 187 217 225 228 227 226 225 211 211 214 230 225 238 192 178 213 162 181 157 142 118 254 117 126 292 222 196 202 198 215 232 247 275 271 255 267 278 281 284 293
Wind_Speed_850mb
17 17 18 21 21 19 17 20 22 20 22 16 26 17 16 15 22 18 10 16 12 15 18 5 20 32 25 14 14 12 7 6 14 13 7 10 8 8 6 6 9 11 13 13 16
16 15 17 18 20 22 20 21 21 22 21 21 21 20 11 14 12 23 24 15 12 16 10 17 28 29 12 9 6 7 7 14 5 7 8 11 8 13 8 8 11 16 20 19 19
13 15 17 19 19 20 22 21 20 19 19 21 19 19 18 5 4 20 23 9 6 10 10 17 17 11 9 8 7 5 6 10 7 7 9 9 5 7 10 10 24 33 30 27 25
14 15 16 20 22 22 23 22 20 19 18 17 19 12 14 7 3 20 20 5 1 4 7 9 4 5 8 8 7 9 8 5 7 5 5 4 3 7 24 9 12 21 25 28 27
16 18 19 18 20 22 22 23 22 20 16 15 17 13 5 8 11 17 19 4 6 4 7 6 4 7 9 7 7 8 5 9 8 5 1 6 8 13 32 35 19 27 31 32 28
20 19 22 21 21 21 21 23 21 18 16 14 12 14 8 7 9 13 15 9 3 6 6 10 10 15 18 9 8 7 12 11 5 6 1 2 5 4 11 36 44 36 35 34 32
24 24 23 23 23 22 22 22 21 17 18 13 11 9 6 8 8 8 12 12 14 9 13 17 20 8 14 10 14 13 6 2 6 8 3 8 12 21 35 10 47 46 40 38 34
26 27 28 27 27 25 23 22 20 15 12 9 8 5 6 4 5 5 7 15 17 18 20 20 21 21 9 24 10 8 8 2 0 11 0 2 17 4 12 29 45 51 47 43 39
28 29 30 30 29 27 25 22 17 10 8 6 4 3 4 3 1 4 4 7 11 14 16 12 5 13 12 9 8 11 4 7 4 6 7 5 15 7 8 26 40 54 57 53 46
27 29 30 31 31 27 26 23 14 10 9 8 6 3 4 3 1 3 4 7 4 7 5 4 9 7 8 7 8 9 6 6 8 4 3 7 32 28 45 34 55 57 61 64 60
26 28 31 32 31 27 24 16 8 6 4 4 3 4 2 1 4 4 7 8 9 5 6 10 9 3 3 0 3 8 6 5 5 4 6 11 19 41 32 44 55 68 71 72 72
30 29 29 30 29 24 23 10 11 2 10 6 4 3 3 1 5 7 5 7 6 6 4 8 3 5 4 3 5 4 3 6 6 3 2 7 32 43 20 24 52 63 65 71 79
30 32 32 30 20 24 19 17 14 14 5 5 3 2 2 2 4 3 5 9 10 7 5 9 8 6 5 3 4 2 3 1 4 11 0 14 16 14 3 9 21 34 35 38 47
30 31 32 33 12 25 17 23 16 12 10 6 1 1 3 3 3 6 5 5 8 10 8 10 6 7 4 3 2 3 4 4 5 10 7 9 11 16 7 17 12 25 27 29 32
27 28 32 28 22 20 19 18 17 8 8 3 3 3 3 2 5 3 6 5 12 10 8 6 10 7 5 4 2 5 4 5 3 5 6 4 2 17 9 12 9 11 20 15 14
31 28 26 25 23 23 21 17 5 12 12 8 5 6 4 7 3 1 1 8 13 8 10 7 3 3 5 4 5 12 7 5 5 4 3 2 5 12 8 6 10 8 7 5 13
36 34 30 27 22 23 21 11 10 9 4 10 4 6 3 2 2 5 1 4 8 10 1 3 3 2 3 8 3 2 6 6 9 6 9 1 2 21 10 10 5 6 5 7 15
47 43 39 31 27 20 15 10 7 6 13 3 4 4 2 7 1 5 3 4 5 8 7 11 9 7 2 2 7 6 3 9 11 5 6 5 12 13 12 4 11 27 15 8 17
56 57 55 40 28 16 4 5 16 16 9 13 2 8 9 4 3 2 9 10 13 17 17 10 4 1 3 3 3 8 4 7 12 4 6 7 15 23 8 12 28 38 23 37 29
53 60 60 51 38 21 5 14 11 11 15 6 14 8 10 6 5 7 5 8 9 5 4 8 5 3 1 2 9 2 8 6 5 1 7 9 11 14 7 4 4 6 35 36 32
56 23 26 37 38 20 11 15 14 22 18 15 17 11 12 12 11 8 9 9 9 8 11 7 7 3 5 12 17 6 3 8 6 8 9 3 12 14 13 7 9 14 13 18 19
50 7 23 42 15 9 11 17 18 14 24 9 3 13 18 16 15 7 16 13 22 24 17 14 10 8 14 6 7 7 9 12 9 12 5 4 15 7 14 17 19 34 28 22 20
19 21 32 54 13 8 6 9 18 13 12 16 19 15 8 17 2 15 10 2 30 17 15 15 4 4 12 7 8 7 9 5 9 5 13 11 11 7 11 15 24 31 28 36 47
15 5 15 37 23 11 15 13 17 29 15 16 9 11 9 9 8 9 11 6 24 13 2 15 5 14 17 12 11 9 11 11 11 7 8 19 16 21 37 36 27 49 56 53 49
22 14 15 10 19 21 14 15 37 28 17 29 8 15 17 15 12 13 7 1 4 13 9 10 12 7 5 4 5 9 10 23 26 30 20 17 31 32 41 37 28 37 40 65 63
18 14 12 12 13 32 37 38 42 33 24 13 18 24 23 40 35 21 21 14 15 7 14 4 7 7 7 2 6 8 17 21 33 21 35 37 53 38 65 65 67 64 47 51 61
48 54 40 16 11 18 24 33 33 27 32 60 44 31 29 55 42 41 24 11 14 26 24 16 12 7 12 3 8 16 34 31 19 16 27 32 56 37 38 30 40 41 40 59 75
Wind_Direction_850mb
46 36 27 20 18 19 7 1 6 2 360 349 342 272 253 350 16 24 16 24 17 9 358 28 154 152 150 141 141 142 81 169 188 161 174 164 154 182 188 191 194 202 188 180 182
40 31 16 16 16 9 9 2 359 359 0 356 360 22 283 281 331 14 21 20 24 15 36 104 126 135 124 120 99 95 123 198 153 149 157 167 184 174 182 198 220 215 208 196 183
27 16 8 6 10 5 2 3 1 357 356 0 348 350 16 216 279 3 3 9 34 33 76 113 121 122 87 103 45 60 153 154 172 153 143 156 209 206 178 230 212 206 197 192 191
11 3 359 357 357 358 357 355 354 353 348 0 357 357 32 54 227 357 358 349 153 69 112 122 111 86 79 80 45 82 62 69 129 155 147 178 220 249 216 246 229 204 197 196 197
351 347 348 349 347 348 349 348 346 348 351 355 8 6 33 65 31 9 2 38 187 182 164 154 104 96 93 92 90 82 130 92 107 125 169 263 261 265 256 229 215 202 203 206 207
339 344 339 341 340 338 339 341 338 342 347 353 331 348 29 88 8 23 25 54 153 170 158 160 164 120 109 73 65 97 116 122 91 41 234 285 247 313 262 220 215 213 213 213 213
340 339 338 336 334 333 334 333 329 323 339 339 338 347 49 99 46 51 49 78 83 101 138 128 135 129 115 99 110 116 78 66 22 351 327 340 277 234 233 243 210 216 218 220 221
344 340 338 337 332 329 329 327 325 318 322 319 336 332 93 80 48 37 96 87 87 95 110 111 113 111 80 118 62 73 63 99 105 359 249 351 270 264 234 220 216 220 224 226 223
342 341 340 337 335 330 328 324 320 313 310 312 312 213 157 158 14 40 126 126 108 103 102 105 120 88 105 87 41 15 200 219 299 50 307 187 274 268 221 210 225 226 228 230 228
345 342 340 339 337 336 329 323 307 297 294 258 247 170 189 219 337 57 111 155 143 123 88 78 60 66 40 87 210 190 205 242 248 331 331 236 265 266 254 244 249 241 236 234 233
352 348 343 341 341 342 340 329 309 285 277 198 179 175 190 264 163 21 163 144 146 103 54 23 70 181 144 175 112 123 145 219 219 162 306 232 271 275 254 239 247 248 243 240 237
1 358 350 346 343 349 353 4 19 330 307 294 269 246 232 187 173 20 139 176 128 111 340 36 135 171 126 115 97 64 145 254 270 102 3 342 284 270 256 232 236 250 250 249 242
4 3 360 354 351 357 15 27 3 348 281 280 264 224 231 242 120 2 142 136 95 88 22 153 155 164 169 118 154 67 181 93 267 319 123 317 281 299 305 255 251 251 259 258 247
356 0 4 0 13 1 11 1 356 348 61 274 253 326 275 146 42 57 103 148 59 146 119 96 171 167 139 146 185 207 98 77 9 18 276 2 285 307 331 294 253 256 250 257 247
343 349 354 7 358 1 348 348 346 2 360 338 318 304 5 143 130 45 60 111 130 139 141 171 150 167 161 98 342 133 84 84 78 88 345 16 82 271 337 316 313 272 244 251 221
322 330 336 345 349 350 347 338 359 44 258 328 302 347 12 20 17 354 119 86 110 104 46 104 120 47 109 94 71 145 106 77 70 96 6 261 153 280 243 237 323 350 283 249 186
300 307 314 322 327 335 339 336 33 136 340 286 264 357 152 19 355 18 68 136 159 82 309 43 92 100 121 106 58 146 76 327 343 11 225 349 357 250 300 271 232 330 1 216 203
289 288 290 297 305 317 329 49 123 239 229 168 157 127 203 0 137 2 60 292 244 95 98 152 303 169 330 118 160 155 157 159 223 234 282 21 234 250 218 289 273 238 244 245 226
281 280 277 276 279 276 299 69 206 201 169 155 88 79 307 6 142 38 215 217 209 180 168 131 260 84 36 146 148 167 158 172 108 77 43 261 285 289 249 259 252 253 241 245 239
271 271 266 266 260 238 150 223 232 199 142 147 181 163 211 240 169 174 177 208 199 177 78 217 68 342 89 127 22 146 150 91 6 206 286 284 279 246 327 264 342 262 240 254 245
266 257 246 237 219 187 208 220 221 225 182 170 194 167 201 193 188 218 230 292 190 137 89 128 99 299 31 212 179 148 180 51 115 150 190 241 255 216 228 248 280 277 291 278 250
240 217 223 203 195 204 186 180 204 182 203 244 228 196 186 166 185 232 220 223 171 160 170 198 141 172 217 319 348 317 202 164 138 225 221 158 263 223 236 254 262 273 275 275 279
237 245 196 196 224 228 264 225 204 153 196 177 210 201 192 174 201 196 207 208 178 173 166 192 248 50 340 347 355 215 206 169 83 70 199 157 252 211 245 250 256 261 268 283 292
260 243 182 206 233 248 191 222 221 211 190 177 190 128 136 181 233 221 224 184 190 200 201 147 147 175 195 200 130 189 196 174 140 138 192 228 268 288 280 276 264 266 279 287 291
226 235 219 201 231 228 211 196 224 220 211 193 219 208 167 198 186 207 230 97 182 208 167 140 210 167 278 127 125 195 166 185 199 213 200 244 228 239 253 265 283 289 290 294 294
266 219 225 250 193 202 214 231 235 222 160 220 224 187 203 224 204 190 174 187 195 144 161 170 223 121 298 185 206 274 231 195 215 235 255 264 272 256 269 282 277 280 281 281 287
249 263 261 239 187 187 217 225 228 227 226 225 211 211 214 230 225 238 192 178 213 162 181 157 142 118 254 117 126 292 222 196 202 198 215 232 247 275 271 255 267 278 281 284 293